Terug naar catalogus

STARLINK-35699

ActiefCommunicatieVLEO
NORAD 66557·PAYLOAD·🇺🇸 United States

Gelanceerd Nov 21, 2025 vanaf Cape Canaveral Space Force Station

Loading…

Volgende Passages (komende 24 uur)

TLE

VersSource: CelesTrak SupGP

Epoch: Sep 14, 2026, 21:26 UTC

1 66557C 25268A   26257.89354167 -.00002598  00000+0 -94088-4 0  2572
2 66557  43.0019 358.9689 0001463 275.3116 353.3308 15.27581737    17

Volg STARLINK-35699 in realtime met AllMySat

Download on the App Store